EW0531 Weather Reports


Display with metric or nautical units.
time (UTC)temp
F
wind
direction
speed
MPH
gust
MPH
rain 1hr
in
rain 24hr
in
rain mn
in
humidity
%
barometer
mb
20260509191553 66 0 0.0 0.0 0.00 0.00 0.00 58 1015.2
20260509191040 66 0 0.0 0.0 0.00 0.00 0.00 58 1015.2
20260509190535 66 0 0.0 0.0 0.00 0.00 0.00 58 1015.0
20260509190047 66 0 0.0 0.0 0.00 0.00 0.00 58 1015.0
20260509185533 66 0 0.0 0.0 0.00 0.00 0.00 58 1015.0
20260509185037 66 0 0.0 0.0 0.00 0.00 0.00 57 1015.0
20260509184542 65 0 0.0 0.0 0.00 0.00 0.00 58 1015.1
20260509184035 65 0 0.0 0.0 0.00 0.00 0.00 59 1015.2
20260509183534 65 0 0.0 3.0 0.00 0.00 0.00 60 1015.2
20260509183054 65 0 0.0 3.0 0.00 0.00 0.00 60 1015.1
20260509182537 65 0 0.0 3.0 0.00 0.00 0.00 60 1015.1
20260509182034 65 247 1.0 3.0 0.00 0.00 0.00 60 1015.1
20260509181550 66 0 0.0 0.0 0.00 0.00 0.00 60 1015.1
20260509181035 65 0 0.0 0.0 0.00 0.00 0.00 60 1015.2
20260509180537 66 0 0.0 2.0 0.00 0.00 0.00 60 1015.1
20260509180053 66 0 0.0 2.0 0.00 0.00 0.00 60 1015.2
20260509175535 66 0 0.0 2.0 0.00 0.00 0.00 59 1015.2
20260509175040 66 0 0.0 5.0 0.00 0.00 0.00 58 1015.2
20260509174557 66 0 0.0 5.0 0.00 0.00 0.00 58 1015.2
20260509174036 66 229 2.0 5.0 0.00 0.00 0.00 59 1015.1
20260509173534 66 252 1.0 4.0 0.00 0.00 0.00 57 1015.2
20260509173049 66 0 0.0 3.0 0.00 0.00 0.00 55 1015.1
20260509172534 67 150 0.0 3.0 0.00 0.00 0.00 55 1015.0
20260509172036 67 0 0.0 4.0 0.00 0.00 0.00 57 1015.1
20260509171553 67 0 0.0 4.0 0.00 0.00 0.00 57 1015.1
20260509171034 67 0 0.0 3.0 0.00 0.00 0.00 56 1015.1
20260509170536 67 215 0.0 3.0 0.00 0.00 0.00 55 1015.2
20260509170048 67 0 0.0 3.0 0.00 0.00 0.00 55 1015.2
20260509165534 67 0 0.0 6.0 0.00 0.00 0.00 56 1015.2
20260509165034 68 0 0.0 6.0 0.00 0.00 0.00 55 1015.2
20260509164547 67 206 1.0 6.0 0.00 0.00 0.00 56 1015.2
20260509164035 67 200 0.0 4.0 0.00 0.00 0.00 56 1015.3
20260509163533 67 0 0.0 4.0 0.00 0.00 0.00 56 1015.2
20260509163103 67 0 0.0 5.0 0.00 0.00 0.00 56 1015.2
20260509162535 67 0 0.0 5.0 0.00 0.00 0.00 55 1015.2
20260509162039 68 216 2.0 6.0 0.00 0.00 0.00 54 1015.3
20260509161550 68 201 2.0 6.0 0.00 0.00 0.00 54 1015.3
20260509161038 69 0 1.0 7.0 0.00 0.00 0.00 52 1015.2
20260509160534 69 0 0.0 7.0 0.00 0.00 0.00 51 1015.2
20260509160059 69 0 2.0 7.0 0.00 0.00 0.00 47 1015.2
20260509155534 70 144 1.0 8.0 0.00 0.00 0.00 48 1015.3
20260509155035 70 142 2.0 8.0 0.00 0.00 0.00 48 1015.2
20260509154601 70 0 0.0 8.0 0.00 0.00 0.00 48 1015.2
20260509154035 70 138 2.0 8.0 0.00 0.00 0.00 48 1015.3
20260509153533 69 161 2.0 8.0 0.00 0.00 0.00 47 1015.2
20260509153047 69 0 1.0 8.0 0.00 0.00 0.00 49 1015.4
20260509152534 68 0 1.0 8.0 0.00 0.00 0.00 51 1015.5
20260509152036 67 0 3.0 8.0 0.00 0.00 0.00 52 1015.4
20260509151553 67 149 1.0 12.0 0.00 0.00 0.00 53 1015.5
20260509151035 67 134 5.0 12.0 0.00 0.00 0.00 53 1015.6
20260509150534 68 197 4.0 11.0 0.00 0.00 0.00 51 1015.6
20260509150047 69 174 6.0 11.0 0.00 0.00 0.00 51 1015.6
20260509145535 69 146 5.0 11.0 0.00 0.00 0.00 49 1015.7
20260509145036 69 0 5.0 12.0 0.00 0.00 0.00 49 1015.7
20260509144606 69 138 5.0 12.0 0.00 0.00 0.00 47 1015.7
20260509144034 71 155 6.0 12.0 0.00 0.00 0.00 45 1015.7
20260509143534 71 122 4.0 12.0 0.00 0.00 0.00 45 1015.7
20260509143053 71 170 3.0 12.0 0.00 0.00 0.00 45 1015.8
20260509142535 71 0 2.0 10.0 0.00 0.00 0.00 45 1015.9
20260509142034 72 103 2.0 13.0 0.00 0.00 0.00 44 1015.8
20260509141542 73 0 3.0 13.0 0.00 0.00 0.00 43 1015.8
20260509141034 73 181 4.0 12.0 0.00 0.00 0.00 43 1015.7
20260509140534 73 0 2.0 12.0 0.00 0.00 0.00 43 1015.6
20260509140100 73 0 4.0 12.0 0.00 0.00 0.00 42 1015.6
20260509135536 73 0 3.0 12.0 0.00 0.00 0.00 44 1015.6
20260509135035 72 0 2.0 11.0 0.00 0.00 0.00 44 1015.7
20260509134551 71 146 0.0 10.0 0.00 0.00 0.00 48 1015.6
20260509134037 72 0 0.0 10.0 0.00 0.00 0.00 45 1015.6
20260509133534 72 180 3.0 11.0 0.00 0.00 0.00 45 1015.6
20260509133051 71 0 2.0 12.0 0.00 0.00 0.00 47 1015.6
20260509132537 71 211 1.0 14.0 0.00 0.00 0.00 48 1015.6
20260509132037 71 138 4.0 14.0 0.00 0.00 0.00 45 1015.6
20260509131555 71 148 5.0 11.0 0.00 0.00 0.00 46 1015.6
20260509131034 71 105 5.0 11.0 0.00 0.00 0.00 45 1015.8
20260509130534 72 157 5.0 11.0 0.00 0.00 0.00 43 1015.6
20260509130055 73 132 3.0 11.0 0.00 0.00 0.00 42 1015.7
20260509125534 73 65 5.0 11.0 0.00 0.00 0.00 42 1015.8
20260509125036 72 46 5.0 14.0 0.00 0.00 0.00 42 1015.8
20260509124550 71 0 2.0 14.0 0.00 0.00 0.00 44 1015.6
20260509124036 71 167 7.0 13.0 0.00 0.00 0.00 44 1015.7
20260509123534 71 149 7.0 13.0 0.00 0.00 0.00 44 1015.7
20260509123044 71 106 5.0 13.0 0.00 0.00 0.00 44 1015.8
20260509122536 71 97 2.0 13.0 0.00 0.00 0.00 45 1015.9
20260509122036 71 190 6.0 13.0 0.00 0.00 0.00 45 1015.9
20260509121559 71 144 4.0 12.0 0.00 0.00 0.00 46 1015.9
20260509121035 71 128 7.0 14.0 0.00 0.00 0.00 46 1016.0
20260509120539 71 150 5.0 14.0 0.00 0.00 0.00 46 1015.9
20260509120054 70 99 8.0 14.0 0.00 0.00 0.00 47 1015.9
20260509115535 69 132 6.0 13.0 0.00 0.00 0.00 48 1015.9
20260509115035 70 154 5.0 11.0 0.00 0.00 0.00 48 1016.2
20260509114545 69 123 7.0 11.0 0.00 0.00 0.00 49 1016.2
20260509114035 69 94 4.0 10.0 0.00 0.00 0.00 51 1016.2
20260509113539 69 140 4.0 14.0 0.00 0.00 0.00 51 1016.3
20260509113050 69 110 5.0 14.0 0.00 0.00 0.00 47 1016.4
20260509112537 69 119 4.0 10.0 0.00 0.00 0.00 49 1016.5
20260509112036 69 73 4.0 14.0 0.00 0.00 0.00 47 1016.5
20260509111556 69 91 7.0 14.0 0.00 0.00 0.00 48 1016.4
20260509111036 69 69 5.0 13.0 0.00 0.00 0.00 48 1016.5
20260509110539 69 95 6.0 12.0 0.00 0.00 0.00 49 1016.5
20260509110046 69 94 4.0 14.0 0.00 0.00 0.00 49 1016.7
20260509105537 69 100 6.0 14.0 0.00 0.00 0.00 47 1016.7
20260509105036 71 61 5.0 13.0 0.00 0.00 0.00 48 1016.8
20260509104545 70 48 4.0 11.0 0.00 0.00 0.00 49 1016.8
20260509104036 70 122 5.0 11.0 0.00 0.00 0.00 49 1016.8
20260509103535 69 55 5.0 11.0 0.00 0.00 0.00 48 1016.9
20260509103043 69 84 4.0 11.0 0.00 0.00 0.00 49 1016.9
20260509102535 69 104 4.0 13.0 0.00 0.00 0.00 51 1016.9
20260509102036 68 63 5.0 13.0 0.00 0.00 0.00 52 1017.0
20260509101544 68 51 5.0 13.0 0.00 0.00 0.00 51 1017.1
20260509101035 68 48 5.0 10.0 0.00 0.00 0.00 53 1017.0
20260509100535 67 93 3.0 10.0 0.00 0.00 0.00 55 1016.9
20260509100047 67 50 5.0 10.0 0.00 0.00 0.00 55 1016.9
20260509095535 66 61 5.0 10.0 0.00 0.00 0.00 56 1017.0
20260509095036 66 120 4.0 13.0 0.00 0.00 0.00 56 1017.0
20260509094551 66 88 4.0 13.0 0.00 0.00 0.00 57 1017.0
20260509094035 66 55 4.0 13.0 0.00 0.00 0.00 56 1017.1
20260509093535 66 23 3.0 8.0 0.00 0.00 0.00 59 1017.1
20260509093047 66 69 3.0 8.0 0.00 0.00 0.00 59 1017.1
20260509092535 65 72 4.0 8.0 0.00 0.00 0.00 60 1017.2
20260509092038 64 43 2.0 8.0 0.00 0.00 0.00 61 1017.2
20260509091543 64 350 3.0 8.0 0.00 0.00 0.00 61 1017.3
20260509091036 64 55 3.0 8.0 0.00 0.00 0.00 61 1017.3
20260509090534 64 50 2.0 8.0 0.00 0.00 0.00 63 1017.4
20260509085534 63 76 2.0 7.0 0.00 0.00 0.00 64 1017.4
20260509085033 62 21 2.0 7.0 0.00 0.00 0.00 65 1017.4
20260509084548 62 340 2.0 7.0 0.00 0.00 0.00 65 1017.5
20260509084034 61 60 3.0 6.0 0.00 0.00 0.00 66 1017.4
20260509083533 61 9 2.0 8.0 0.00 0.00 0.00 67 1017.4
20260509083058 60 49 1.0 8.0 0.00 0.00 0.00 68 1017.5
20260509082533 60 57 3.0 8.0 0.00 0.00 0.00 67 1017.5
20260509082036 59 47 3.0 6.0 0.00 0.00 0.00 68 1017.5
20260509081548 59 19 3.0 6.0 0.00 0.00 0.00 68 1017.6
20260509081035 59 49 2.0 6.0 0.00 0.00 0.00 68 1017.5
20260509080535 58 63 1.0 5.0 0.00 0.00 0.00 69 1017.6
20260509080048 58 28 3.0 7.0 0.00 0.00 0.00 69 1017.5
20260509075534 58 76 3.0 9.0 0.00 0.00 0.00 69 1017.6
20260509075038 58 53 3.0 9.0 0.00 0.00 0.00 69 1017.5
20260509074549 58 103 4.0 9.0 0.00 0.00 0.00 69 1017.5
20260509074037 57 72 3.0 7.0 0.00 0.00 0.00 69 1017.5
20260509073538 57 64 2.0 7.0 0.00 0.00 0.00 69 1017.4
20260509073051 57 42 2.0 10.0 0.00 0.00 0.00 69 1017.4
20260509072540 57 80 3.0 10.0 0.00 0.00 0.00 70 1017.5
20260509072039 57 42 4.0 10.0 0.00 0.00 0.00 69 1017.4
20260509071549 56 28 3.0 9.0 0.00 0.00 0.00 70 1017.5
20260509071038 56 45 4.0 9.0 0.00 0.00 0.00 70 1017.4
20260509070539 56 89 2.0 7.0 0.00 0.00 0.00 70 1017.4
20260509070046 55 67 3.0 9.0 0.00 0.00 0.00 71 1017.5
20260509065538 55 55 2.0 9.0 0.00 0.00 0.00 71 1017.4
20260509065041 54 18 3.0 8.0 0.00 0.00 0.00 71 1017.4
20260509064547 54 40 4.0 8.0 0.00 0.00 0.00 71 1017.4
20260509064037 54 55 3.0 8.0 0.00 0.00 0.00 71 1017.4
20260509063537 53 76 2.0 6.0 0.00 0.00 0.00 72 1017.4
20260509063056 52 83 1.0 5.0 0.00 0.00 0.00 73 1017.3
20260509062538 52 28 2.0 6.0 0.00 0.00 0.00 73 1017.4
20260509062037 51 42 3.0 7.0 0.00 0.00 0.00 73 1017.3
20260509061547 51 44 3.0 8.0 0.00 0.00 0.00 74 1017.3
20260509061038 51 53 3.0 8.0 0.00 0.00 0.00 74 1017.3
20260509060539 51 26 3.0 8.0 0.00 0.00 0.00 74 1017.3
20260509060052 51 53 2.0 6.0 0.00 0.00 0.00 74 1017.3
20260509055538 50 36 2.0 6.0 0.00 0.00 0.00 74 1017.3
20260509055037 50 63 1.0 6.0 0.00 0.00 0.00 75 1017.2
20260509054548 50 36 2.0 8.0 0.00 0.00 0.00 75 1017.1
20260509054038 50 44 2.0 8.0 0.00 0.00 0.00 75 1017.1
20260509053538 49 30 3.0 7.0 0.00 0.00 0.00 75 1017.0
20260509053107 49 65 3.0 7.0 0.00 0.00 0.00 76 1016.9
20260509052538 49 53 2.0 4.0 0.00 0.00 0.00 76 1017.1
20260509052038 49 29 1.0 4.0 0.00 0.00 0.00 76 1017.0
20260509051545 49 56 2.0 4.0 0.00 0.00 0.00 76 1017.0
20260509051037 49 42 1.0 4.0 0.00 0.00 0.00 76 1017.0
20260509050539 49 30 1.0 4.0 0.00 0.00 0.00 77 1016.8
20260509050048 49 43 2.0 5.0 0.00 0.00 0.00 77 1016.8
20260509045533 49 26 2.0 5.0 0.00 0.00 0.00 77 1016.8
20260509045036 49 42 1.0 4.0 0.00 0.00 0.00 76 1016.9
20260509044547 49 0 1.0 3.0 0.00 0.00 0.00 76 1017.1
20260509044033 49 51 0.0 3.0 0.00 0.00 0.00 76 1017.0
20260509043534 49 0 1.0 3.0 0.00 0.00 0.00 76 1016.9
20260509043104 49 55 1.0 4.0 0.00 0.00 0.00 75 1016.8
20260509042533 49 35 1.0 4.0 0.00 0.00 0.00 75 1016.8
20260509042036 49 20 1.0 4.0 0.00 0.00 0.00 75 1016.7
20260509041557 49 349 1.0 5.0 0.00 0.00 0.00 75 1016.9
20260509041034 49 9 2.0 5.0 0.00 0.00 0.00 75 1016.8
20260509040533 49 34 2.0 5.0 0.00 0.00 0.00 75 1016.9
20260509040101 49 38 1.0 3.0 0.00 0.00 0.00 74 1017.1
20260509035533 50 24 2.0 3.0 0.00 0.00 0.00 75 1017.2
20260509035034 49 0 1.0 4.0 0.00 0.00 0.00 75 1017.1
20260509034558 49 28 1.0 4.0 0.00 0.00 0.00 74 1017.1
20260509034033 50 0 1.0 4.0 0.00 0.00 0.00 74 1017.1
20260509033534 50 15 1.0 4.0 0.00 0.00 0.00 75 1017.1
20260509033049 49 335 2.0 4.0 0.00 0.00 0.00 75 1017.1
20260509032533 49 335 1.0 3.0 0.00 0.00 0.00 75 1017.0
20260509032036 49 335 1.0 2.0 0.00 0.00 0.00 74 1016.9
20260509031601 49 335 0.0 3.0 0.00 0.00 0.00 74 1016.8
20260509031034 49 54 0.0 3.0 0.00 0.00 0.00 74 1016.8
20260509030534 50 44 1.0 3.0 0.00 0.00 0.00 74 1016.8
20260509030049 50 0 1.0 4.0 0.00 0.00 0.00 74 1016.8
20260509025535 50 22 1.0 4.0 0.00 0.00 0.00 73 1016.8
20260509025033 50 45 2.0 6.0 0.00 0.00 0.00 73 1016.9
20260509024543 50 39 2.0 8.0 0.00 0.00 0.00 73 1016.9
20260509024036 50 19 2.0 8.0 0.00 0.00 0.00 73 1016.9
20260509023533 50 5 2.0 6.0 0.00 0.00 0.00 73 1017.0
20260509023041 50 53 2.0 6.0 0.00 0.00 0.00 73 1017.0
20260509022533 50 68 2.0 4.0 0.00 0.00 0.00 73 1017.1
20260509022035 50 42 1.0 4.0 0.00 0.00 0.00 73 1017.2
20260509021549 50 10 1.0 4.0 0.00 0.00 0.00 74 1017.1
20260509021033 50 45 1.0 6.0 0.00 0.00 0.00 74 1017.1
20260509020537 50 29 2.0 6.0 0.00 0.00 0.00 74 1017.0
20260509020053 51 57 1.0 3.0 0.00 0.00 0.00 75 1017.1
20260509015538 51 42 1.0 3.0 0.00 0.00 0.00 74 1017.1
20260509015037 51 13 1.0 3.0 0.00 0.00 0.00 74 1017.2
20260509014551 51 5 0.0 3.0 0.00 0.00 0.00 75 1017.2
20260509014038 51 5 1.0 3.0 0.00 0.00 0.00 75 1017.1
20260509013538 51 12 1.0 3.0 0.00 0.00 0.00 75 1017.1
20260509013052 51 30 1.0 3.0 0.00 0.00 0.00 75 1017.1
20260509012538 51 0 1.0 3.0 0.00 0.00 0.00 75 1017.1
20260509012038 51 26 1.0 3.0 0.00 0.00 0.00 75 1017.1
20260509011546 51 34 1.0 3.0 0.00 0.00 0.00 75 1017.1
20260509011037 51 60 1.0 3.0 0.00 0.00 0.00 75 1017.1
20260509010541 52 35 1.0 4.0 0.00 0.00 0.00 75 1017.0
20260509010054 52 25 2.0 4.0 0.00 0.00 0.00 75 1017.1
20260509005537 52 20 2.0 5.0 0.00 0.00 0.00 75 1017.1
20260509005037 52 22 2.0 5.0 0.00 0.00 0.00 74 1017.2
20260509004547 52 34 2.0 5.0 0.00 0.00 0.00 74 1017.2
20260509004037 52 32 2.0 4.0 0.00 0.00 0.00 73 1017.2
20260509003537 52 15 1.0 3.0 0.00 0.00 0.00 73 1017.2
20260509003051 52 19 1.0 3.0 0.00 0.00 0.00 73 1017.3
20260509002538 52 41 1.0 3.0 0.00 0.00 0.00 73 1017.3
20260509002038 52 23 1.0 3.0 0.00 0.00 0.00 73 1017.4
20260509001549 52 35 1.0 3.0 0.00 0.00 0.00 73 1017.3
20260509001038 52 35 1.0 4.0 0.00 0.00 0.00 73 1017.4
20260509000537 53 35 1.0 4.0 0.00 0.00 0.00 73 1017.4
20260509000050 53 0 2.0 4.0 0.00 0.00 0.00 73 1017.5
20260508235538 53 28 1.0 3.0 0.00 0.00 0.00 73 1017.3
20260508235038 53 36 1.0 3.0 0.00 0.00 0.00 73 1017.5
20260508234551 53 19 1.0 3.0 0.00 0.00 0.00 73 1017.5
20260508234037 53 13 1.0 4.0 0.00 0.00 0.00 73 1017.4
20260508233537 53 19 1.0 4.0 0.00 0.00 0.00 73 1017.4
20260508233050 53 30 2.0 4.0 0.00 0.00 0.00 72 1017.5
20260508232538 54 38 1.0 4.0 0.00 0.00 0.00 72 1017.5
20260508232037 54 26 1.0 4.0 0.00 0.00 0.00 72 1017.5
20260508231549 54 32 1.0 4.0 0.00 0.00 0.00 72 1017.5
20260508231038 54 43 1.0 4.0 0.00 0.00 0.00 72 1017.6
20260508230537 54 14 1.0 4.0 0.00 0.00 0.00 71 1017.6
20260508230058 54 344 2.0 4.0 0.00 0.00 0.00 71 1017.5
20260508225538 54 32 2.0 4.0 0.00 0.00 0.00 70 1017.5
20260508225034 54 30 1.0 4.0 0.00 0.00 0.00 70 1017.6
20260508224547 54 28 1.0 4.0 0.00 0.00 0.00 70 1017.6
20260508224034 55 41 2.0 4.0 0.00 0.00 0.00 69 1017.5
20260508223535 55 51 2.0 4.0 0.00 0.00 0.00 70 1017.5
20260508223048 55 31 2.0 4.0 0.00 0.00 0.00 69 1017.5
20260508222534 55 34 1.0 3.0 0.00 0.00 0.00 69 1017.5
20260508222034 55 17 1.0 3.0 0.00 0.00 0.00 69 1017.4
20260508221549 55 17 1.0 3.0 0.00 0.00 0.00 69 1017.4
20260508221035 55 17 1.0 3.0 0.00 0.00 0.00 68 1017.4
20260508220534 55 17 1.0 3.0 0.00 0.00 0.00 68 1017.5
20260508220055 55 11 1.0 3.0 0.00 0.00 0.00 68 1017.4
20260508215535 56 9 1.0 3.0 0.00 0.00 0.00 67 1017.3
20260508215035 56 19 1.0 4.0 0.00 0.00 0.00 67 1017.4
20260508214541 56 19 1.0 4.0 0.00 0.00 0.00 67 1017.4
20260508214036 56 39 1.0 4.0 0.00 0.00 0.00 66 1017.3
20260508213534 56 35 1.0 3.0 0.00 0.00 0.00 66 1017.4
20260508213050 56 30 1.0 3.0 0.00 0.00 0.00 66 1017.3
20260508212535 56 34 1.0 5.0 0.00 0.00 0.00 65 1017.3
20260508212035 57 36 1.0 5.0 0.00 0.00 0.00 65 1017.3
20260508211545 57 38 2.0 5.0 0.00 0.00 0.00 64 1017.2
20260508211034 57 40 1.0 4.0 0.00 0.00 0.00 64 1017.2
20260508210538 57 14 1.0 4.0 0.00 0.00 0.00 63 1017.2
20260508210053 57 26 1.0 4.0 0.00 0.00 0.00 63 1017.1
20260508205534 58 33 1.0 3.0 0.00 0.00 0.00 62 1017.1
20260508205038 58 32 1.0 3.0 0.00 0.00 0.00 62 1017.1
20260508204548 58 33 0.0 3.0 0.00 0.00 0.00 61 1017.1
20260508204035 58 28 0.0 4.0 0.00 0.00 0.00 61 1017.0
20260508203535 58 36 1.0 5.0 0.00 0.00 0.00 60 1017.0
20260508203042 59 63 2.0 6.0 0.00 0.00 0.00 60 1017.0
20260508202535 59 61 3.0 6.0 0.00 0.00 0.00 59 1016.8
20260508202035 59 55 2.0 5.0 0.00 0.00 0.00 59 1016.9
20260508201548 59 59 0.0 4.0 0.00 0.00 0.00 59 1016.9
20260508201036 60 62 1.0 6.0 0.00 0.00 0.00 58 1016.8
20260508200533 60 0 1.0 6.0 0.00 0.00 0.00 58 1016.8
20260508200054 60 32 2.0 7.0 0.00 0.00 0.00 58 1016.7
20260508195535 60 79 2.0 7.0 0.00 0.00 0.00 57 1016.6
20260508195036 60 45 2.0 7.0 0.00 0.00 0.00 56 1016.6
20260508194550 60 70 3.0 7.0 0.00 0.00 0.00 56 1016.5
20260508194038 61 109 2.0 7.0 0.00 0.00 0.00 56 1016.5
20260508193535 61 65 2.0 7.0 0.00 0.00 0.00 56 1016.4
20260508193058 61 96 3.0 7.0 0.00 0.00 0.00 57 1016.4
20260508192536 61 87 2.0 6.0 0.00 0.00 0.00 58 1016.4
20260508192037 61 115 1.0 4.0 0.00 0.00 0.00 60 1016.3